Погода в Энаротали

Индонезия     3°57′58″S   136°18′49″E
темп.,
°C
ветер,
м/с
пор.,
м/с
влажн.,
%
обл.,
%
осадки,
мм/ч
давл.,
гПа
погр.,
м
18 мая, вт
вт1800:00+14вюв019690 0.0 101414
03:00+13юв119799 0.0 101314
06:00+13в0197100 0.0 101413
09:00+20ю1175100 0.1 1014694
12:00+19ю2286100 1.4 1012605
15:00+19ююв118888 3.9 1010538
18:00+16ю0098100 1.8 101220
21:00+16вюв009998 3.6 101433
19 мая, ср
ср1900:00+15ю119899 0.6 101334
03:00+15ююв119896 1.0 101239
06:00+15ссв009673 0.3 101314
09:00+19ссз118149 0.3 1013614
12:00+20ю118198 1.6 1010714
15:00+18юз019691 4.8 1009172
18:00+16ююв0199100 3.7 101275
21:00+16с0099100 5.8 101438
20 мая, чт
чт2000:00+15ссз0198100 1.6 101334
03:00+15св009967 2.6 101227
06:00+15с009883 0.3 101316
09:00+18ссв019088 0.8 1014380
12:00+19юз018970 2.3 1011457
15:00+18ююз119398 7.4 1010291
18:00+16ююв1199100 4.6 1012116
21:00+16вюв12100100 17.7 1013131
21 мая, пт
пт2100:00+16всв0099100 17.6 101338
03:00+15з00100100 25.4 101243
06:00+15ссз009966 1.9 101323
09:00+18ююз118963 2.6 1013437
12:00+18ююз1192100 2.8 1012495
15:00+18ююв1195100 5.9 1010260
18:00+16ю1199100 2.1 101236
21:00+16юз0199100 8.4 101436
22 мая, сб
сб2200:00+15зюз0199100 6.6 101330
03:00+15св009893 7.6 101215
06:00+14вюв019851 0.1 101315
09:00+19ююз118437 0.6 1013574
12:00+19ю118998 3.7 1011572
15:00+17ююв119697 6.6 1009293
18:00+16ю1299100 2.1 1011198
21:00+16юв119996 2.8 1013125